Погода в Киркьюбуре

Дания     61°57′15″N   6°47′39″W
темп.,
°C
ветер,
м/с
пор.,
м/с
влажн.,
%
обл.,
%
осадки,
мм/ч
давл.,
гПа
погр.,
м
12 августа, пт
пт1201:00+11юз61090100 0.0 1021280
04:00+11юз7109210 0.0 1021335
07:00+11зюз6109115 0.0 1021340
10:00+11юз7991100 0.0 1021326
13:00+11юз71090100 0.0 1021363
16:00+11юз81289100 0.0 1020391
19:00+11юз812897 0.0 1020373
22:00+11юз812925 0.0 1019353
13 августа, сб
сб1301:00+11юз710936 0.0 1019257
04:00+10зюз79947 0.0 1019228
07:00+11юз68946 0.0 1018200
10:00+11юз68885 0.0 1018262
13:00+11юз68863 0.0 1018279
16:00+11юз688513 0.0 1018257
19:00+11юз5687100 0.0 1017203
22:00+11юз5691100 0.0 1016108
14 августа, вс
вс1401:00+11юз459266 0.0 101581
04:00+11юз4493100 0.0 101365
07:00+11юз3493100 0.0 101258
10:00+11ююз4593100 0.0 1011163
13:00+12юз4593100 0.1 1011179
16:00+12юз4488100 0.0 1010175
19:00+12юз3382100 0.0 1009115
22:00+11с228798 0.0 100924
15 августа, пн
пн1501:00+11ссв338894 0.0 100934
04:00+11ссв3387100 0.0 100942
07:00+11ссв4587100 0.0 100997
10:00+11ссв5686100 0.0 1009246
13:00+11св7788100 0.0 1010401
16:00+10ссв8887100 0.0 1010485
19:00+10ссв9108486 0.0 1011684
22:00+9ссв9107897 0.0 1013807
16 августа, вт
вт1601:00+9с89784 0.0 1014655
04:00+8с89785 0.0 1015614
07:00+9с8107559 0.0 1016912
10:00+9с8972100 0.1 10171043
13:00+9ссв786878 0.1 10181062
16:00+9ссв786766 0.0 1019968
19:00+9с67713 0.0 1019870
22:00+8с56766 0.0 1020646